sat.trackr.live / text

‹ back to catalog

HULIANWANG DIGUI-173

NORAD 69576 · 2026-137E

PAYLOAD ACTIVE UNKNOWN

§ Identity

Operator
Country
PRC
Launch date
2026-06-17
Launch site
WSC
Launch vehicle
Mass (kg)
RCS (m²)

External: N2YO · Heavens-Above · Gunter

§ Orbital elements

Epoch: 2026-09-20T00:10:37.242336Z

Period
108.33 min
Inclination
50.0020°
Eccentricity
0.0000297
Mean motion
13.29326563 rev/d
Perigee alt
1,149.1 km
Apogee alt
1,149.5 km
Semi-major
7,527.4 km
B*
1.0428e-4
RAAN
255.7915°
Arg perigee
355.7978°
Mean anomaly
4.2891°
Rev number
1,294

§ Raw data

HULIANWANG DIGUI-1731 69576U 26137E   26263.00737549 -.00000076  00000+0  10428-3 0  99972 69576  50.0020 255.7915 0000297 355.7978   4.2891 13.29326563 12948

JSON: /api/v1/satellites/69576 · /tle

For live sub-satellite position, see the globe view (requires WebGL).

§ Visibility from observer

Set your observer location to see the next 7 days of passes ≥ 10°. The values pass through the URL so the page stays shareable.

No JS? Fill the form by hand. The geolocation button needs JavaScript.